Location: Stone Trail Observatory
(44.2408°N, 105.6081°W)
Time: 00:04:28
(UTC-06:00)

Iridium 6 - Visible Passes

Search period start: 21 September 2014 00:00
Search period end: 01 October 2014 00:00
Orbit: 776 x 779 km, 86.4° (Epoch: 20 September)

Date Brightness Start Highest point End Pass type
(mag) Time Alt. Az. Time Alt. Az. Time Alt. Az.
21 Sep 8.5 01:30:53 11° NNE 01:30:53 11° NNE 01:31:06 10° NNE visible
21 Sep 8.0 03:11:22 14° NNW 03:11:22 14° NNW 03:12:05 10° NNW visible
22 Sep 8.1 02:38:06 14° N 02:38:06 14° N 02:38:50 10° N visible
23 Sep 8.3 02:04:50 13° N 02:04:50 13° N 02:05:18 10° N visible
25 Sep 8.4 02:38:44 10° N 02:38:44 10° N 02:38:49 10° N visible
